CZ-6A DEB, 54420

Orbit data source: Space-Track

CZ-6A DEB, 54420 is space debris in SSO originally from a launch on Fri, 11 Nov 2022 UTC launched from the Taiyaun Space Center, China (TSC). Debris objects in space refer to the collection of defunct objects orbiting the Earth. Examples of debris include non-operational satellites, rocket bodies, and fragments generated from explosions, collisions, or faulty payload assembly.

Loading next visibility...
Identifier
54420, 2022-151EU
Orbit
SSO
Country
Flag of CNCN / PRC
Related business
Manufacturer
SAST
Mission
Spacecraft
Bus & Motor
Unknown
Mass
Unknown
Launch date (UTC)
2022-11-11 (4 years ago)
Launch vehicle
Unknown
Launch site
Taiyaun Space Center, China (TSC)
Object type
Payload
Rocket body
Debris
Shape & HBR
Unknown shape, 0.1 m
Radar Cross Section
Medium (>0.1 m² and <1 m²)

Expand to show TLE details & history
Last TLE update: 11 hours ago

TLE from 11 hours ago
0 CZ-6A DEB
1 54420U 22151EU  26235.83738749  .00000969  00000-0  22321-3 0  9990
2 54420  98.6665 311.4369 0118321  19.2631 341.2981 14.53650078199727
Epoch: 2026-08-23T20:05Z
TLE epoch observation values (Epoch: 2026-08-23T20:05:50.279Z)
Latitude
-0.00004°
Longitude
37.8497°
Altitude
637.32 km
Speed
7.582 km/s
True Right ascension
20h 45m 44s
True Declination
0° 00' 00"
Sunlit
Object was in full shadow at epoch
Visualization orbit readout
Latitude
Unknown
Longitude
Unknown
Altitude
Unknown
Speed
Unknown
Apparent Right ascension
Unknown
Apparent Declination
Unknown
Sunlit
N/A
Visualization observer readout
Local Sidereal Time
22:17:34
Azimuth
Unknown
Elevation
Unknown
Doppler factor
Unknown
Orbital elements
Apogee altitude
794.741 km
Perigee altitude
626.985 km
Semi-major axis
7,089 km
Eccentricity
0.01183
Inclination
98.6665°
RAAN
311.4369°
Arg. of periapsis
19.2631°
True anomaly
340.85718°
Mean anomaly
341.2981°
Eccentric anomaly
341.07826°
Mean motion
3.63635 °/min
Orbital period
99 mins
BSTAR
0.00022321
Loading maneuver chart data...
Computing Atmospheric mass density...
Loading historical data...
Loading historical data...
Loading historical data...
Loading historical data...
Loading historical data...
Loading historical data...
Loading historical data...

Documentation

Showing up to 5 results
|